Year,Month,Day,Hour,Minute,Value (Times are PST for temperature in C)
2015,09,22,00,00,10.70
2015,09,22,00,01,10.70
2015,09,22,00,02,10.70
2015,09,22,00,03,10.70
2015,09,22,00,04,10.70
2015,09,22,00,05,10.70
2015,09,22,00,06,10.70
2015,09,22,00,07,10.70
2015,09,22,00,08,10.70
2015,09,22,00,09,10.70
2015,09,22,00,10,10.70
2015,09,22,00,11,10.70
2015,09,22,00,12,10.70
2015,09,22,00,13,10.70
2015,09,22,00,14,10.70
2015,09,22,00,15,10.70
2015,09,22,00,16,10.80
2015,09,22,00,17,10.80
2015,09,22,00,18,10.80
2015,09,22,00,19,10.80
2015,09,22,00,20,10.80
2015,09,22,00,21,10.80
2015,09,22,00,22,10.80
2015,09,22,00,23,10.80
2015,09,22,00,24,10.80
2015,09,22,00,25,10.80
2015,09,22,00,26,10.80
2015,09,22,00,27,10.80
2015,09,22,00,28,10.80
2015,09,22,00,29,10.80
2015,09,22,00,30,10.80
2015,09,22,00,31,10.80
2015,09,22,00,32,10.80
2015,09,22,00,33,10.80
2015,09,22,00,34,10.80
2015,09,22,00,35,10.80
2015,09,22,00,36,10.80
2015,09,22,00,37,10.80
2015,09,22,00,38,10.80
2015,09,22,00,39,10.80
2015,09,22,00,40,10.80
2015,09,22,00,41,10.80
2015,09,22,00,42,10.70
2015,09,22,00,43,10.80
2015,09,22,00,44,10.80
2015,09,22,00,45,10.70
2015,09,22,00,46,10.70
2015,09,22,00,47,10.70
2015,09,22,00,48,10.70
2015,09,22,00,49,10.70
2015,09,22,00,50,10.70
2015,09,22,00,51,10.70
2015,09,22,00,52,10.70
2015,09,22,00,53,10.70
2015,09,22,00,54,10.70
2015,09,22,00,55,10.70
2015,09,22,00,56,10.70
2015,09,22,00,57,10.70
2015,09,22,00,58,10.70
2015,09,22,00,59,10.70
2015,09,22,01,00,10.60
2015,09,22,01,01,10.60
2015,09,22,01,02,10.60
2015,09,22,01,03,10.60
2015,09,22,01,04,10.60
2015,09,22,01,05,10.60
2015,09,22,01,06,10.60
2015,09,22,01,07,10.60
2015,09,22,01,08,10.60
2015,09,22,01,09,10.60
2015,09,22,01,10,10.60
2015,09,22,01,11,10.60
2015,09,22,01,12,10.60
2015,09,22,01,13,10.60
2015,09,22,01,14,10.60
2015,09,22,01,15,10.60
2015,09,22,01,16,10.60
2015,09,22,01,17,10.60
2015,09,22,01,18,10.60
2015,09,22,01,19,10.60
2015,09,22,01,20,10.60
2015,09,22,01,21,10.60
2015,09,22,01,22,10.60
2015,09,22,01,23,10.60
2015,09,22,01,24,10.60
2015,09,22,01,25,10.50
2015,09,22,01,26,10.50
2015,09,22,01,27,10.50
2015,09,22,01,28,10.50
2015,09,22,01,29,10.50
2015,09,22,01,30,10.50
2015,09,22,01,31,10.50
2015,09,22,01,32,10.50
2015,09,22,01,33,10.50
2015,09,22,01,34,10.50
2015,09,22,01,35,10.50
2015,09,22,01,36,10.50
2015,09,22,01,37,10.50
2015,09,22,01,38,10.50
2015,09,22,01,39,10.50
2015,09,22,01,40,10.50
2015,09,22,01,41,10.50
2015,09,22,01,42,10.50
2015,09,22,01,43,10.40
2015,09,22,01,44,10.40
2015,09,22,01,45,10.40
2015,09,22,01,46,10.40
2015,09,22,01,47,10.40
2015,09,22,01,48,10.40
2015,09,22,01,49,10.40
2015,09,22,01,50,10.30
2015,09,22,01,51,10.30
2015,09,22,01,52,10.30
2015,09,22,01,53,10.30
2015,09,22,01,54,10.30
2015,09,22,01,55,10.20
2015,09,22,01,56,10.20
2015,09,22,01,57,10.20
2015,09,22,01,58,10.20
2015,09,22,01,59,10.20
2015,09,22,02,00,10.10
2015,09,22,02,01,10.10
2015,09,22,02,02,10.10
2015,09,22,02,03,10.10
2015,09,22,02,04,10.10
2015,09,22,02,05,10.00
2015,09,22,02,06,10.00
2015,09,22,02,07,10.00
2015,09,22,02,08,9.90
2015,09,22,02,09,9.90
2015,09,22,02,10,9.90
2015,09,22,02,11,9.80
2015,09,22,02,12,9.80
2015,09,22,02,13,9.80
2015,09,22,02,14,9.80
2015,09,22,02,15,9.70
2015,09,22,02,16,9.70
2015,09,22,02,17,9.70
2015,09,22,02,18,9.70
2015,09,22,02,19,9.70
2015,09,22,02,20,9.70
2015,09,22,02,21,9.70
2015,09,22,02,22,9.60
2015,09,22,02,23,9.60
2015,09,22,02,24,9.60
2015,09,22,02,25,9.60
2015,09,22,02,26,9.60
2015,09,22,02,27,9.60
2015,09,22,02,28,9.60
2015,09,22,02,29,9.50
2015,09,22,02,30,9.50
2015,09,22,02,31,9.50
2015,09,22,02,32,9.50
2015,09,22,02,33,9.50
2015,09,22,02,34,9.50
2015,09,22,02,35,9.50
2015,09,22,02,36,9.50
2015,09,22,02,37,9.50
2015,09,22,02,38,9.50
2015,09,22,02,39,9.50
2015,09,22,02,40,9.50
2015,09,22,02,41,9.50
2015,09,22,02,42,9.50
2015,09,22,02,43,9.50
2015,09,22,02,44,9.50
2015,09,22,02,45,9.50
2015,09,22,02,46,9.50
2015,09,22,02,47,9.50
2015,09,22,02,48,9.50
2015,09,22,02,49,9.40
2015,09,22,02,50,9.40
2015,09,22,02,51,9.30
2015,09,22,02,52,9.30
2015,09,22,02,53,9.30
2015,09,22,02,54,9.20
2015,09,22,02,55,9.20
2015,09,22,02,56,9.20
2015,09,22,02,57,9.20
2015,09,22,02,58,9.20
2015,09,22,02,59,9.10
2015,09,22,03,00,9.10
2015,09,22,03,01,9.10
2015,09,22,03,02,9.20
2015,09,22,03,03,9.20
2015,09,22,03,04,9.20
2015,09,22,03,05,9.20
2015,09,22,03,06,9.20
2015,09,22,03,07,9.20
2015,09,22,03,08,9.20
2015,09,22,03,09,9.20
2015,09,22,03,10,9.10
2015,09,22,03,11,9.10
2015,09,22,03,12,9.10
2015,09,22,03,13,9.10
2015,09,22,03,14,9.10
2015,09,22,03,15,9.10
2015,09,22,03,16,9.10
2015,09,22,03,17,9.10
2015,09,22,03,18,9.10
2015,09,22,03,19,9.10
2015,09,22,03,20,9.10
2015,09,22,03,21,9.10
2015,09,22,03,22,9.10
2015,09,22,03,23,9.00
2015,09,22,03,24,9.00
2015,09,22,03,25,9.00
2015,09,22,03,26,9.00
2015,09,22,03,27,8.90
2015,09,22,03,28,8.90
2015,09,22,03,29,8.90
2015,09,22,03,30,8.90
2015,09,22,03,31,8.90
2015,09,22,03,32,8.90
2015,09,22,03,33,8.90
2015,09,22,03,34,8.90
2015,09,22,03,35,8.90
2015,09,22,03,36,8.90
2015,09,22,03,37,8.90
2015,09,22,03,38,8.90
2015,09,22,03,39,8.90
2015,09,22,03,40,8.80
2015,09,22,03,41,8.80
2015,09,22,03,42,8.80
2015,09,22,03,43,8.80
2015,09,22,03,44,8.80
2015,09,22,03,45,8.80
2015,09,22,03,46,8.90
2015,09,22,03,47,8.90
2015,09,22,03,48,8.90
2015,09,22,03,49,8.90
2015,09,22,03,50,8.90
2015,09,22,03,51,8.90
2015,09,22,03,52,8.90
2015,09,22,03,53,8.90
2015,09,22,03,54,8.90
2015,09,22,03,55,8.90
2015,09,22,03,56,8.90
2015,09,22,03,57,8.90
2015,09,22,03,58,8.90
2015,09,22,03,59,8.90
2015,09,22,04,00,8.90
2015,09,22,04,01,8.90
2015,09,22,04,02,8.90
2015,09,22,04,03,8.80
2015,09,22,04,04,8.80
2015,09,22,04,05,8.80
2015,09,22,04,06,8.80
2015,09,22,04,07,8.80
2015,09,22,04,08,8.80
2015,09,22,04,09,8.80
2015,09,22,04,10,8.80
2015,09,22,04,11,8.80
2015,09,22,04,12,8.80
2015,09,22,04,13,8.80
2015,09,22,04,14,8.80
2015,09,22,04,15,8.80
2015,09,22,04,16,8.80
2015,09,22,04,17,8.80
2015,09,22,04,18,8.80
2015,09,22,04,19,8.80
2015,09,22,04,20,8.80
2015,09,22,04,21,8.80
2015,09,22,04,22,8.80
2015,09,22,04,23,8.80
2015,09,22,04,24,8.80
2015,09,22,04,25,8.80
2015,09,22,04,26,8.80
2015,09,22,04,27,8.80
2015,09,22,04,28,8.80
2015,09,22,04,29,8.70
2015,09,22,04,30,8.70
2015,09,22,04,31,8.60
2015,09,22,04,32,8.50
2015,09,22,04,33,8.40
2015,09,22,04,34,8.30
2015,09,22,04,35,8.30
2015,09,22,04,36,8.30
2015,09,22,04,37,8.20
2015,09,22,04,38,8.20
2015,09,22,04,39,8.10
2015,09,22,04,40,8.10
2015,09,22,04,41,8.10
2015,09,22,04,42,8.10
2015,09,22,04,43,8.10
2015,09,22,04,44,8.20
2015,09,22,04,45,8.10
2015,09,22,04,46,8.10
2015,09,22,04,47,8.10
2015,09,22,04,48,8.00
2015,09,22,04,49,8.00
2015,09,22,04,50,7.90
2015,09,22,04,51,7.80
2015,09,22,04,52,7.70
2015,09,22,04,53,7.70
2015,09,22,04,54,7.60
2015,09,22,04,55,7.60
2015,09,22,04,56,7.50
2015,09,22,04,57,7.40
2015,09,22,04,58,7.40
2015,09,22,04,59,7.40
2015,09,22,05,00,7.40
2015,09,22,05,01,7.30
2015,09,22,05,02,7.30
2015,09,22,05,03,7.30
2015,09,22,05,04,7.30
2015,09,22,05,05,7.20
2015,09,22,05,06,7.20
2015,09,22,05,07,7.20
2015,09,22,05,08,7.20
2015,09,22,05,09,7.20
2015,09,22,05,10,7.20
2015,09,22,05,11,7.10
2015,09,22,05,12,7.10
2015,09,22,05,13,7.10
2015,09,22,05,14,7.10
2015,09,22,05,15,7.00
2015,09,22,05,16,7.00
2015,09,22,05,17,7.00
2015,09,22,05,18,6.90
2015,09,22,05,19,6.90
2015,09,22,05,20,6.90
2015,09,22,05,21,6.90
2015,09,22,05,22,6.80
2015,09,22,05,23,6.80
2015,09,22,05,24,6.80
2015,09,22,05,25,6.80
2015,09,22,05,26,6.90
2015,09,22,05,27,6.90
2015,09,22,05,28,7.00
2015,09,22,05,29,7.00
2015,09,22,05,30,7.10
2015,09,22,05,31,7.10
2015,09,22,05,32,7.20
2015,09,22,05,33,7.20
2015,09,22,05,34,7.10
2015,09,22,05,35,7.10
2015,09,22,05,36,7.10
2015,09,22,05,37,7.10
2015,09,22,05,38,7.10
2015,09,22,05,39,7.10
2015,09,22,05,40,7.10
2015,09,22,05,41,7.00
2015,09,22,05,42,7.00
2015,09,22,05,43,7.00
2015,09,22,05,44,7.10
2015,09,22,05,45,7.10
2015,09,22,05,46,7.10
2015,09,22,05,47,7.10
2015,09,22,05,48,7.20
2015,09,22,05,49,7.20
2015,09,22,05,50,7.30
2015,09,22,05,51,7.30
2015,09,22,05,52,7.30
2015,09,22,05,53,7.30
2015,09,22,05,54,7.30
2015,09,22,05,55,7.20
2015,09,22,05,56,7.20
2015,09,22,05,57,7.20
2015,09,22,05,58,7.20
2015,09,22,05,59,7.20
2015,09,22,06,00,7.20
2015,09,22,06,01,7.10
2015,09,22,06,02,7.10
2015,09,22,06,03,7.00
2015,09,22,06,04,7.00
2015,09,22,06,05,7.00
2015,09,22,06,06,6.90
2015,09,22,06,07,6.90
2015,09,22,06,08,6.80
2015,09,22,06,09,6.80
2015,09,22,06,10,6.80
2015,09,22,06,11,6.80
2015,09,22,06,12,6.80
2015,09,22,06,13,6.70
2015,09,22,06,14,6.70
2015,09,22,06,15,6.70
2015,09,22,06,16,6.60
2015,09,22,06,17,6.60
2015,09,22,06,18,6.60
2015,09,22,06,19,6.60
2015,09,22,06,20,6.60
2015,09,22,06,21,6.60
2015,09,22,06,22,6.60
2015,09,22,06,23,6.60
2015,09,22,06,24,6.50
2015,09,22,06,25,6.50
2015,09,22,06,26,6.50
2015,09,22,06,27,6.40
2015,09,22,06,28,6.40
2015,09,22,06,29,6.30
2015,09,22,06,30,6.30
2015,09,22,06,31,6.30
2015,09,22,06,32,6.30
2015,09,22,06,33,6.30
2015,09,22,06,34,6.30
2015,09,22,06,35,6.30
2015,09,22,06,36,6.30
2015,09,22,06,37,6.20
2015,09,22,06,38,6.20
2015,09,22,06,39,6.20
2015,09,22,06,40,6.20
2015,09,22,06,41,6.10
2015,09,22,06,42,6.10
2015,09,22,06,43,6.10
2015,09,22,06,44,6.10
2015,09,22,06,45,6.10
2015,09,22,06,46,6.10
2015,09,22,06,47,6.10
2015,09,22,06,48,6.10
2015,09,22,06,49,6.20
2015,09,22,06,50,6.20
2015,09,22,06,51,6.30
2015,09,22,06,52,6.50
2015,09,22,06,53,6.60
2015,09,22,06,54,6.70
2015,09,22,06,55,6.90
2015,09,22,06,56,7.00
2015,09,22,06,57,7.00
2015,09,22,06,58,7.00
2015,09,22,06,59,7.00
2015,09,22,07,00,7.00
2015,09,22,07,01,6.90
2015,09,22,07,02,6.80
2015,09,22,07,03,6.70
2015,09,22,07,04,6.60
2015,09,22,07,05,6.50
2015,09,22,07,06,6.40
2015,09,22,07,07,6.40
2015,09,22,07,08,6.40
2015,09,22,07,09,6.30
2015,09,22,07,10,6.30
2015,09,22,07,11,6.20
2015,09,22,07,12,6.20
2015,09,22,07,13,6.20
2015,09,22,07,14,6.10
2015,09,22,07,15,6.10
2015,09,22,07,16,6.10
2015,09,22,07,17,6.00
2015,09,22,07,18,6.00
2015,09,22,07,19,6.00
2015,09,22,07,20,6.00
2015,09,22,07,21,6.00
2015,09,22,07,22,6.00
2015,09,22,07,23,6.00
2015,09,22,07,24,6.00
2015,09,22,07,25,6.00
2015,09,22,07,26,6.10
2015,09,22,07,27,6.10
2015,09,22,07,28,6.20
2015,09,22,07,29,6.20
2015,09,22,07,30,6.20
2015,09,22,07,31,6.20
2015,09,22,07,32,6.20
2015,09,22,07,33,6.20
2015,09,22,07,34,6.30
2015,09,22,07,35,6.30
2015,09,22,07,36,6.40
2015,09,22,07,37,6.40
2015,09,22,07,38,6.50
2015,09,22,07,39,6.60
2015,09,22,07,40,6.70
2015,09,22,07,41,6.70
2015,09,22,07,42,6.70
2015,09,22,07,43,6.70
2015,09,22,07,44,6.70
2015,09,22,07,45,6.70
2015,09,22,07,46,6.70
2015,09,22,07,47,6.70
2015,09,22,07,48,6.80
2015,09,22,07,49,6.80
2015,09,22,07,50,6.80
2015,09,22,07,51,6.80
2015,09,22,07,52,6.90
2015,09,22,07,53,6.90
2015,09,22,07,54,7.00
2015,09,22,07,55,7.00
2015,09,22,07,56,7.10
2015,09,22,07,57,7.20
2015,09,22,07,58,7.20
2015,09,22,07,59,7.20
2015,09,22,08,00,7.20
2015,09,22,08,01,7.30
2015,09,22,08,02,7.40
2015,09,22,08,03,7.40
2015,09,22,08,04,7.50
2015,09,22,08,05,7.60
2015,09,22,08,06,7.60
2015,09,22,08,07,7.70
2015,09,22,08,08,7.80
2015,09,22,08,09,7.90
2015,09,22,08,10,7.90
2015,09,22,08,11,8.00
2015,09,22,08,12,8.00
2015,09,22,08,13,8.10
2015,09,22,08,14,8.10
2015,09,22,08,15,8.10
2015,09,22,08,16,8.10
2015,09,22,08,17,8.20
2015,09,22,08,18,8.20
2015,09,22,08,19,8.30
2015,09,22,08,20,8.30
2015,09,22,08,21,8.40
2015,09,22,08,22,8.40
2015,09,22,08,23,8.40
2015,09,22,08,24,8.50
2015,09,22,08,25,8.50
2015,09,22,08,26,8.60
2015,09,22,08,27,8.70
2015,09,22,08,28,8.70
2015,09,22,08,29,8.70
2015,09,22,08,30,8.80
2015,09,22,08,31,8.90
2015,09,22,08,32,8.90
2015,09,22,08,33,9.00
2015,09,22,08,34,9.10
2015,09,22,08,35,9.10
2015,09,22,08,36,9.20
2015,09,22,08,37,9.30
2015,09,22,08,38,9.30
2015,09,22,08,39,9.40
2015,09,22,08,40,9.40
2015,09,22,08,41,9.50
2015,09,22,08,42,9.50
2015,09,22,08,43,9.50
2015,09,22,08,44,9.60
2015,09,22,08,45,9.60
2015,09,22,08,46,9.70
2015,09,22,08,47,9.70
2015,09,22,08,48,9.70
2015,09,22,08,49,9.80
2015,09,22,08,50,9.80
2015,09,22,08,51,9.90
2015,09,22,08,52,9.90
2015,09,22,08,53,9.90
2015,09,22,08,54,9.90
2015,09,22,08,55,10.00
2015,09,22,08,56,10.00
2015,09,22,08,57,10.10
2015,09,22,08,58,10.10
2015,09,22,08,59,10.20
2015,09,22,09,00,10.20
2015,09,22,09,01,10.20
2015,09,22,09,02,10.20
2015,09,22,09,03,10.30
2015,09,22,09,04,10.30
2015,09,22,09,05,10.40
2015,09,22,09,06,10.40
2015,09,22,09,07,10.50
2015,09,22,09,08,10.50
2015,09,22,09,09,10.60
2015,09,22,09,10,10.60
2015,09,22,09,11,10.70
2015,09,22,09,12,10.70
2015,09,22,09,13,10.80
2015,09,22,09,14,10.80
2015,09,22,09,15,10.80
2015,09,22,09,16,10.90
2015,09,22,09,17,10.90
2015,09,22,09,18,11.00
2015,09,22,09,19,11.10
2015,09,22,09,20,11.20
2015,09,22,09,21,11.20
2015,09,22,09,22,11.30
2015,09,22,09,23,11.40
2015,09,22,09,24,11.50
2015,09,22,09,25,11.60
2015,09,22,09,26,11.60
2015,09,22,09,27,11.50
2015,09,22,09,28,11.60
2015,09,22,09,29,11.60
2015,09,22,09,30,11.60
2015,09,22,09,31,11.60
2015,09,22,09,32,11.70
2015,09,22,09,33,11.70
2015,09,22,09,34,11.80
2015,09,22,09,35,11.80
2015,09,22,09,36,11.90
2015,09,22,09,37,12.00
2015,09,22,09,38,12.00
2015,09,22,09,39,12.10
2015,09,22,09,40,12.10
2015,09,22,09,41,12.20
2015,09,22,09,42,12.20
2015,09,22,09,43,12.20
2015,09,22,09,44,12.20
2015,09,22,09,45,12.20
2015,09,22,09,46,12.30
2015,09,22,09,47,12.30
2015,09,22,09,48,12.30
2015,09,22,09,49,12.30
2015,09,22,09,50,12.40
2015,09,22,09,51,12.40
2015,09,22,09,52,12.40
2015,09,22,09,53,12.50
2015,09,22,09,54,12.50
2015,09,22,09,55,12.60
2015,09,22,09,56,12.60
2015,09,22,09,57,12.60
2015,09,22,09,58,12.70
2015,09,22,09,59,12.70
2015,09,22,10,00,12.70
2015,09,22,10,01,12.80
2015,09,22,10,02,12.90
2015,09,22,10,03,12.90
2015,09,22,10,04,12.90
2015,09,22,10,05,12.90
2015,09,22,10,06,12.90
2015,09,22,10,07,12.80
2015,09,22,10,08,12.80
2015,09,22,10,09,12.80
2015,09,22,10,10,12.70
2015,09,22,10,11,12.70
2015,09,22,10,12,12.50
2015,09,22,10,13,12.50
2015,09,22,10,14,12.40
2015,09,22,10,15,12.30
2015,09,22,10,16,12.30
2015,09,22,10,17,12.30
2015,09,22,10,18,12.30
2015,09,22,10,19,12.30
2015,09,22,10,20,12.30
2015,09,22,10,21,12.30
2015,09,22,10,22,12.30
2015,09,22,10,23,12.40
2015,09,22,10,24,12.40
2015,09,22,10,25,12.50
2015,09,22,10,26,12.60
2015,09,22,10,27,12.60
2015,09,22,10,28,12.60
2015,09,22,10,29,12.60
2015,09,22,10,30,12.60
2015,09,22,10,31,12.60
2015,09,22,10,32,12.60
2015,09,22,10,33,12.60
2015,09,22,10,34,12.60
2015,09,22,10,35,12.60
2015,09,22,10,36,12.70
2015,09,22,10,37,12.70
2015,09,22,10,38,12.70
2015,09,22,10,39,12.70
2015,09,22,10,40,12.70
2015,09,22,10,41,12.70
2015,09,22,10,42,12.80
2015,09,22,10,43,12.80
2015,09,22,10,44,12.70
2015,09,22,10,45,12.70
2015,09,22,10,46,12.70
2015,09,22,10,47,12.70
2015,09,22,10,48,12.70
2015,09,22,10,49,12.80
2015,09,22,10,50,12.80
2015,09,22,10,51,12.80
2015,09,22,10,52,12.80
2015,09,22,10,53,12.80
2015,09,22,10,54,12.80
2015,09,22,10,55,12.70
2015,09,22,10,56,12.70
2015,09,22,10,57,12.70
2015,09,22,10,58,12.70
2015,09,22,10,59,12.70
2015,09,22,11,00,12.70
2015,09,22,11,01,12.80
2015,09,22,11,02,12.80
2015,09,22,11,03,12.90
2015,09,22,11,04,12.90
2015,09,22,11,05,13.00
2015,09,22,11,06,13.00
2015,09,22,11,07,13.00
2015,09,22,11,08,13.00
2015,09,22,11,09,13.10
2015,09,22,11,10,13.10
2015,09,22,11,11,13.10
2015,09,22,11,12,13.20
2015,09,22,11,13,13.20
2015,09,22,11,14,13.30
2015,09,22,11,15,13.30
2015,09,22,11,16,13.40
2015,09,22,11,17,13.40
2015,09,22,11,18,13.40
2015,09,22,11,19,13.50
2015,09,22,11,20,13.50
2015,09,22,11,21,13.40
2015,09,22,11,22,13.40
2015,09,22,11,23,13.40
2015,09,22,11,24,13.40
2015,09,22,11,25,13.40
2015,09,22,11,26,13.40
2015,09,22,11,27,13.40
2015,09,22,11,28,13.40
2015,09,22,11,29,13.30
2015,09,22,11,30,13.30
2015,09,22,11,31,13.30
2015,09,22,11,32,13.30
2015,09,22,11,33,13.30
2015,09,22,11,34,13.40
2015,09,22,11,35,13.40
2015,09,22,11,36,13.30
2015,09,22,11,37,13.30
2015,09,22,11,38,13.30
2015,09,22,11,39,13.30
2015,09,22,11,40,13.30
2015,09,22,11,41,13.30
2015,09,22,11,42,13.40
2015,09,22,11,43,13.40
2015,09,22,11,44,13.50
2015,09,22,11,45,13.50
2015,09,22,11,46,13.60
2015,09,22,11,47,13.60
2015,09,22,11,48,13.50
2015,09,22,11,49,13.50
2015,09,22,11,50,13.50
2015,09,22,11,51,13.40
2015,09,22,11,52,13.40
2015,09,22,11,53,13.40
2015,09,22,11,54,13.40
2015,09,22,11,55,13.40
2015,09,22,11,56,13.40
2015,09,22,11,57,13.40
2015,09,22,11,58,13.40
2015,09,22,11,59,13.40
2015,09,22,12,00,13.30
2015,09,22,12,01,13.30
2015,09,22,12,02,13.30
2015,09,22,12,03,13.20
2015,09,22,12,04,13.20
2015,09,22,12,05,13.20
2015,09,22,12,06,13.10
2015,09,22,12,07,13.10
2015,09,22,12,08,13.20
2015,09,22,12,09,13.20
2015,09,22,12,10,13.10
2015,09,22,12,11,13.10
2015,09,22,12,12,13.00
2015,09,22,12,13,13.00
2015,09,22,12,14,13.00
2015,09,22,12,15,13.00
2015,09,22,12,16,13.00
2015,09,22,12,17,13.10
2015,09,22,12,18,13.20
2015,09,22,12,19,13.20
2015,09,22,12,20,13.30
2015,09,22,12,21,13.30
2015,09,22,12,22,13.30
2015,09,22,12,23,13.30
2015,09,22,12,24,13.30
2015,09,22,12,25,13.30
2015,09,22,12,26,13.30
2015,09,22,12,27,13.30
2015,09,22,12,28,13.30
2015,09,22,12,29,13.30
2015,09,22,12,30,13.30
2015,09,22,12,31,13.20
2015,09,22,12,32,13.20
2015,09,22,12,33,13.20
2015,09,22,12,34,13.20
2015,09,22,12,35,13.20
2015,09,22,12,36,13.20
2015,09,22,12,37,13.20
2015,09,22,12,38,13.10
2015,09,22,12,39,13.10
2015,09,22,12,40,13.20
2015,09,22,12,41,13.20
2015,09,22,12,42,13.20
2015,09,22,12,43,13.30
2015,09,22,12,44,13.30
2015,09,22,12,45,13.30
2015,09,22,12,46,13.30
2015,09,22,12,47,13.30
2015,09,22,12,48,13.40
2015,09,22,12,49,13.40
2015,09,22,12,50,13.40
2015,09,22,12,51,13.50
2015,09,22,12,52,13.50
2015,09,22,12,53,13.60
2015,09,22,12,54,13.60
2015,09,22,12,55,13.60
2015,09,22,12,56,13.70
2015,09,22,12,57,13.70
2015,09,22,12,58,13.70
2015,09,22,12,59,13.70
2015,09,22,13,00,13.70
2015,09,22,13,01,13.70
2015,09,22,13,02,13.60
2015,09,22,13,03,13.50
2015,09,22,13,04,13.50
2015,09,22,13,05,13.50
2015,09,22,13,06,13.60
2015,09,22,13,07,13.60
2015,09,22,13,08,13.60
2015,09,22,13,09,13.60
2015,09,22,13,10,13.60
2015,09,22,13,11,13.60
2015,09,22,13,12,13.70
2015,09,22,13,13,13.70
2015,09,22,13,14,13.70
2015,09,22,13,15,13.60
2015,09,22,13,16,13.60
2015,09,22,13,17,13.60
2015,09,22,13,18,13.60
2015,09,22,13,19,13.60
2015,09,22,13,20,13.60
2015,09,22,13,21,13.60
2015,09,22,13,22,13.60
2015,09,22,13,23,13.70
2015,09,22,13,24,13.70
2015,09,22,13,25,13.70
2015,09,22,13,26,13.80
2015,09,22,13,27,13.80
2015,09,22,13,28,13.80
2015,09,22,13,29,13.80
2015,09,22,13,30,13.70
2015,09,22,13,31,13.80
2015,09,22,13,32,13.80
2015,09,22,13,33,13.80
2015,09,22,13,34,13.80
2015,09,22,13,35,13.90
2015,09,22,13,36,13.90
2015,09,22,13,37,14.00
2015,09,22,13,38,14.00
2015,09,22,13,39,14.00
2015,09,22,13,40,14.10
2015,09,22,13,41,14.10
2015,09,22,13,42,14.10
2015,09,22,13,43,14.10
2015,09,22,13,44,14.10
2015,09,22,13,45,14.10
2015,09,22,13,46,14.10
2015,09,22,13,47,14.10
2015,09,22,13,48,14.10
2015,09,22,13,49,14.20
2015,09,22,13,50,14.20
2015,09,22,13,51,14.20
2015,09,22,13,52,14.20
2015,09,22,13,53,14.10
2015,09,22,13,54,14.10
2015,09,22,13,55,14.10
2015,09,22,13,56,14.00
2015,09,22,13,57,13.90
2015,09,22,13,58,13.80
2015,09,22,13,59,13.80
2015,09,22,14,00,13.80
2015,09,22,14,01,13.80
2015,09,22,14,02,13.80
2015,09,22,14,03,13.80
2015,09,22,14,04,13.90
2015,09,22,14,05,13.90
2015,09,22,14,06,13.90
2015,09,22,14,07,14.00
2015,09,22,14,08,14.00
2015,09,22,14,09,14.10
2015,09,22,14,10,14.10
2015,09,22,14,11,14.10
2015,09,22,14,12,14.10
2015,09,22,14,13,14.10
2015,09,22,14,14,14.10
2015,09,22,14,15,14.10
2015,09,22,14,16,14.10
2015,09,22,14,17,14.10
2015,09,22,14,18,14.00
2015,09,22,14,19,14.00
2015,09,22,14,20,14.00
2015,09,22,14,21,13.90
2015,09,22,14,22,13.90
2015,09,22,14,23,13.90
2015,09,22,14,24,14.00
2015,09,22,14,25,14.00
2015,09,22,14,26,14.10
2015,09,22,14,27,14.10
2015,09,22,14,28,14.10
2015,09,22,14,29,14.20
2015,09,22,14,30,14.20
2015,09,22,14,31,14.20
2015,09,22,14,32,14.20
2015,09,22,14,33,14.10
2015,09,22,14,34,14.20
2015,09,22,14,35,14.20
2015,09,22,14,36,14.20
2015,09,22,14,37,14.20
2015,09,22,14,38,14.10
2015,09,22,14,39,14.10
2015,09,22,14,40,14.10
2015,09,22,14,41,14.10
2015,09,22,14,42,14.10
2015,09,22,14,43,14.10
2015,09,22,14,44,14.20
2015,09,22,14,45,14.20
2015,09,22,14,46,14.30
2015,09,22,14,47,14.30
2015,09,22,14,48,14.20
2015,09,22,14,49,14.20
2015,09,22,14,50,14.10
2015,09,22,14,51,14.10
2015,09,22,14,52,14.10
2015,09,22,14,53,14.10
2015,09,22,14,54,14.00
2015,09,22,14,55,14.00
2015,09,22,14,56,14.00
2015,09,22,14,57,14.00
2015,09,22,14,58,14.00
2015,09,22,14,59,14.10
2015,09,22,15,00,14.10
2015,09,22,15,01,14.20
2015,09,22,15,02,14.20
2015,09,22,15,03,14.20
2015,09,22,15,04,14.20
2015,09,22,15,05,14.20
2015,09,22,15,06,14.20
2015,09,22,15,07,14.20
2015,09,22,15,08,14.20
2015,09,22,15,09,14.20
2015,09,22,15,10,14.20
2015,09,22,15,11,14.30
2015,09,22,15,12,14.30
2015,09,22,15,13,14.30
2015,09,22,15,14,14.40
2015,09,22,15,15,14.40
2015,09,22,15,16,14.50
2015,09,22,15,17,14.60
2015,09,22,15,18,14.60
2015,09,22,15,19,14.70
2015,09,22,15,20,14.70
2015,09,22,15,21,14.70
2015,09,22,15,22,14.70
2015,09,22,15,23,14.80
2015,09,22,15,24,14.90
2015,09,22,15,25,15.00
2015,09,22,15,26,15.00
2015,09,22,15,27,15.00
2015,09,22,15,28,15.00
2015,09,22,15,29,15.00
2015,09,22,15,30,14.90
2015,09,22,15,31,14.80
2015,09,22,15,32,14.80
2015,09,22,15,33,14.70
2015,09,22,15,34,14.60
2015,09,22,15,35,14.60
2015,09,22,15,36,14.60
2015,09,22,15,37,14.60
2015,09,22,15,38,14.60
2015,09,22,15,39,14.60
2015,09,22,15,40,14.60
2015,09,22,15,41,14.60
2015,09,22,15,42,14.60
2015,09,22,15,43,14.60
2015,09,22,15,44,14.60
2015,09,22,15,45,14.60
2015,09,22,15,46,14.60
2015,09,22,15,47,14.60
2015,09,22,15,48,14.60
2015,09,22,15,49,14.70
2015,09,22,15,50,14.70
2015,09,22,15,51,14.70
2015,09,22,15,52,14.70
2015,09,22,15,53,14.70
2015,09,22,15,54,14.80
2015,09,22,15,55,14.80
2015,09,22,15,56,14.80
2015,09,22,15,57,14.80
2015,09,22,15,58,14.80
2015,09,22,15,59,14.70
2015,09,22,16,00,14.60
2015,09,22,16,01,14.50
2015,09,22,16,02,14.40
2015,09,22,16,03,14.30
2015,09,22,16,04,14.30
2015,09,22,16,05,14.20
2015,09,22,16,06,14.20
2015,09,22,16,07,14.20
2015,09,22,16,08,14.20
2015,09,22,16,09,14.20
2015,09,22,16,10,14.20
2015,09,22,16,11,14.20
2015,09,22,16,12,14.10
2015,09,22,16,13,14.10
2015,09,22,16,14,14.10
2015,09,22,16,15,14.10
2015,09,22,16,16,14.10
2015,09,22,16,17,14.10
2015,09,22,16,18,14.10
2015,09,22,16,19,14.10
2015,09,22,16,20,14.10
2015,09,22,16,21,14.10
2015,09,22,16,22,14.10
2015,09,22,16,23,14.10
2015,09,22,16,24,14.00
2015,09,22,16,25,13.90
2015,09,22,16,26,13.90
2015,09,22,16,27,13.90
2015,09,22,16,28,13.90
2015,09,22,16,29,13.90
2015,09,22,16,30,13.90
2015,09,22,16,31,13.90
2015,09,22,16,32,13.80
2015,09,22,16,33,13.90
2015,09,22,16,34,13.90
2015,09,22,16,35,14.00
2015,09,22,16,36,14.00
2015,09,22,16,37,14.00
2015,09,22,16,38,13.90
2015,09,22,16,39,13.90
2015,09,22,16,40,13.90
2015,09,22,16,41,13.90
2015,09,22,16,42,13.90
2015,09,22,16,43,13.90
2015,09,22,16,44,13.90
2015,09,22,16,45,13.90
2015,09,22,16,46,13.80
2015,09,22,16,47,13.80
2015,09,22,16,48,13.80
2015,09,22,16,49,13.80
2015,09,22,16,50,13.90
2015,09,22,16,51,13.80
2015,09,22,16,52,13.80
2015,09,22,16,53,13.80
2015,09,22,16,54,13.90
2015,09,22,16,55,13.90
2015,09,22,16,56,13.90
2015,09,22,16,57,13.90
2015,09,22,16,58,13.80
2015,09,22,16,59,13.80
2015,09,22,17,00,13.80
2015,09,22,17,01,13.80
2015,09,22,17,02,13.70
2015,09,22,17,03,13.70
2015,09,22,17,04,13.70
2015,09,22,17,05,13.70
2015,09,22,17,06,13.70
2015,09,22,17,07,13.70
2015,09,22,17,08,13.70
2015,09,22,17,09,13.70
2015,09,22,17,10,13.70
2015,09,22,17,11,13.80
2015,09,22,17,12,13.70
2015,09,22,17,13,13.80
2015,09,22,17,14,13.80
2015,09,22,17,15,13.80
2015,09,22,17,16,13.80
2015,09,22,17,17,13.80
2015,09,22,17,18,13.70
2015,09,22,17,19,13.70
2015,09,22,17,20,13.70
2015,09,22,17,21,13.70
2015,09,22,17,22,13.80
2015,09,22,17,23,13.80
2015,09,22,17,24,13.80
2015,09,22,17,25,13.80
2015,09,22,17,26,13.80
2015,09,22,17,27,13.80
2015,09,22,17,28,13.70
2015,09,22,17,29,13.70
2015,09,22,17,30,13.60
2015,09,22,17,31,13.60
2015,09,22,17,32,13.60
2015,09,22,17,33,13.60
2015,09,22,17,34,13.60
2015,09,22,17,35,13.60
2015,09,22,17,36,13.60
2015,09,22,17,37,13.60